Regional Weather Roundup
Issued by NWS

Home | Current Version | Previous Version | Graphics & Text | Print | Product List | Glossary On
Versions: 1 2 3 4 5 6 7 8 9 10 11 12 13 14 15 16 17 18 19 20 21 22 23 24 25 26 27 28 29 30 31 32 33 34 35 36 37 38 39 40 41 42 43 44 45 46 47 48 49 50
000
ASUS43 KLSX 191707
RWRMO

WEATHER SUMMARY FOR MISSOURI
NATIONAL WEATHER SERVICE SPRINGFIELD MO
1200 PM CDT SUN APR 19 2015

NOTE: "FAIR" INDICATES FEW OR NO CLOUDS BELOW 12,000 FEET WITH NO
       SIGNIFICANT WEATHER AND/OR OBSTRUCTIONS TO VISIBILITY.
       CURRENT SKY AND/OR WEATHER CONDITIONS ARE NOT AVAILABLE FOR
       CHILLICOTHE AND FARMINGTON.

MOZ001>031-035>038-043-044-053-054-191800-
...NORTHERN AND WESTERN MISSOURI...

CITY           SKY/WX    TMP DP  RH WIND       PRES   REMARKS
KANSAS CTY INT CLOUDY    64  55  72 N8        29.69S
KANSAS C DTWN  CLOUDY    65  53  65 W9        29.68F
LEE`S SUMMIT   CLOUDY    64  54  69 W12       29.69S
ST JOSEPH      CLOUDY    63  55  75 NW15      29.68F
CHILLICOTHE      N/A     69  59  70 S8        29.64F
KIRKSVILLE     PTSUNNY   69  59  70 E7        29.62F

$$
MOZ066>068-077>081-088>096-101>105-191800-
...SOUTHWEST MISSOURI...

CITY           SKY/WX    TMP DP  RH WIND       PRES   REMARKS
SPRINGFIELD    CLOUDY    65  54  67 W17       29.70R
JOPLIN         MOSUNNY   62  53  72 W14       29.75F

$$
MOZ032>034-039>042-045>050-055>058-069>072-191800-
...CENTRAL MISSOURI...

CITY           SKY/WX    TMP DP  RH WIND       PRES   REMARKS
COLUMBIA       LGT RAIN  61  59  93 NE8       29.63F
JEFFERSON CITY LGT RAIN  62  59  90 NE13G20   29.61F
ROLLA          RAIN      60  58  92 W10       29.63F FOG
SEDALIA        PTSUNNY   65  59  81 NW12      29.67F
WHITEMAN AFB   PTSUNNY   63  57  82 NW6       29.66F
WARRENSBURG    CLOUDY    61  55  82 NW7       29.67F
OSAGE BEACH    CLOUDY    66  61  82 SW8       29.66R

$$
MOZ051-052-059>065-191800-
...EAST CENTRAL MISSOURI...

CITY           SKY/WX    TMP DP  RH WIND       PRES   REMARKS
ST LOUIS INTL  LGT RAIN  64  58  80 NE6       29.60F
SPIRIT OF STL  LGT RAIN  65  61  87 CALM      29.59F
ST CHARLES     LGT RAIN  65  57  75 CALM      29.59F

$$
MOZ072>076-082>087-097>100-106>115-191800-
...SOUTH CENTRAL AND SOUTHEAST MISSOURI...

CITY           SKY/WX    TMP DP  RH WIND       PRES   REMARKS
CAPE GIRARDEAU CLOUDY    70  65  84 S6        29.56F
FARMINGTON     CLOUDY    64  57  77 NW9       29.62F
POPLAR BLUFF   CLOUDY    69  61  75 W13       29.57S
WEST PLAINS    CLOUDY    70  59  68 NW8G17    29.65S

$$


USA.gov is the U.S. government's official web portal to all federal, state and local government web resources and services.